Regional Weather Roundup
Issued by NWS Grand Forks, ND

Home | Current Version | Previous Version | Text Only | Print | Product List | Glossary Off
Versions: 1 2 3 4 5 6 7 8 9 10 11 12 13 14 15 16 17 18 19 20 21 22 23 24 25 26 27 28 29 30 31 32 33 34 35 36 37 38 39 40 41 42 43 44 45 46 47 48 49 50

000
ASUS43 KFGF 272210
RWRFGF
PRAIRIE TO PINES  WEATHER ROUNDUP
NATIONAL WEATHER SERVICE EASTERN NORTH DAKOTA/GRAND FORKS ND
500 PM CDT THU AUG 27 2015

 **SATELLITE DATA USED TO AUGMENT SKY COVER AT AUTOMATED STATIONS**
 *****  WEATHER ACROSS EASTERN NORTH DAKOTA  *****

CITY           SKY/WX    TMP DP  RH WIND       PRES   REMARKS
GRAND FORKS    PTSUNNY   78  63  59 SW9       29.91F
GRAND FRKS AFB FAIR      78  64  61 SW8       29.92F
GRAND FRKS NWS   N/A     79 N/A N/A S6          N/A
DEVILS LAKE    FAIR      77  61  57 S9        29.91F
FARGO          FAIR      79  65  62 VRB3      29.92F
WAHPETON ARPT  FAIR      77  63  61 SE9       29.94S
$$

 ***** WEATHER ACROSS CENTRAL AND WESTERN NORTH DAKOTA  *****

CITY           SKY/WX    TMP DP  RH WIND       PRES   REMARKS
BISMARCK       FAIR      86  61  42 S7        29.92F
MINOT          FAIR      81  64  56 S7        29.90F
JAMESTOWN      FAIR      77  67  71 S5        29.94F
MINOT AFB      FAIR      82  65  56 S8        29.89F
GARRISON         N/A     83  64  52 SE5       29.91F
WILLISTON      FAIR      85  62  46 S8        29.89F
DICKINSON      FAIR      87  56  34 E8        29.91F
HETTINGER      FAIR      85  57  38 W7        29.94F
$$

 *****  OTHER AIRPORT OBSERVATIONS IN OUR AREA  *****

CITY           SKY/WX    TMP DP  RH WIND       PRES   REMARKS
WALHALLA       FAIR      77  64  65 MISG      29.90F
GRAFTON AIRPOR FAIR      77  61  57 S6        29.92F
VALLEY CITY AR FAIR      77  72  83 S6        29.94F
CANDO          NOT AVBL
CAVALIER APRT  FAIR      77  63  61 S10       29.91S
GWINNER        FAIR      81  70  69 CALM      29.95R
SHEYENNE NWR     N/A     81  69  65 SE2       29.95S
ROLLA            N/A     81  61  50 SW12      29.93S
 ***** THE ABOVE OBSERVATIONS ARE NON NWS ARE NOT QUALITY
       CONTROLLED AND MAY MIS-REPORT RAIN FOR SNOW...
$$

  *****  WEATHER ACROSS NORTHERN MINNESOTA  *****

CITY           SKY/WX    TMP DP  RH WIND       PRES   REMARKS
FLAG ISLAND    FAIR      72  55  56 CALM      29.93F HAZE
WARROAD        FAIR      72  63  73 NE3       29.94F
ROSEAU         FAIR      79  63  57 SW5       29.93F
HALLOCK        FAIR      79  61  53 S8        29.91F
THF RVR FALLS  FAIR     N/A N/A N/A SE6       29.92F
BAUDETTE       FAIR      76  59  55 SW7       29.94F
WASKISH        FAIR      75  63  64 S5        29.95S
CROOKSTON      FAIR      79  64  61 SW8       29.93S
STEPHEN NDAWN    N/A     79  63  57 S6          N/A
GREENBUSH NDAW   N/A     79  61  53 S7          N/A
$$
  *****  WEATHER ACROSS CENTRAL AND WEST MINNESOTA  *****

CITY           SKY/WX    TMP DP  RH WIND       PRES   REMARKS
FOSSTON        FAIR      81  64  57 SW9       29.95S
BEMIDJI        PTSUNNY   76  64  66 S8        29.96S
PARK RAPIDS    CLOUDY    75  63  66 S9        29.97S
ELBOW LAKE     FAIR      73  65  76 S12       29.96S
WADENA         FAIR      73  63  68 S10       29.97S
DETROIT LAKES  FAIR      73  64  73 S6        29.98R
MOORHEAD       FAIR      75  64  69 S3        29.94S
FERGUS FALLS   FAIR      75  66  73 S7        29.94S
MORRIS MN      FAIR      75  66  73 S8        29.95S
STAPLES        PTSUNNY   72  61  68 S10       29.98S
$$
  *****  WEATHER ELSEWHERE ACROSS MINNESOTA  *****

CITY           SKY/WX    TMP DP  RH WIND       PRES   REMARKS
DULUTH         CLOUDY    72  56  57 S12       30.02S
INTRNTL FALLS  FAIR      75  57  53 SW7       29.96F
ELY            FAIR      73  52  46 S7        30.00F
CLOQUET        PTSUNNY   73  55  53 S9        30.02R
WHEATON        FAIR      72  64  78 S8        29.96S
BRAINERD       CLOUDY    74  62  66 S13       29.99S
HIBBING        FAIR      73  56  54 S8        29.99F
ALEXANDRIA     FAIR      73  63  70 S9        29.99S
SAINT CLOUD    PTSUNNY   74  62  66 S13       30.00S
MINNEAPOLIS    CLOUDY    76  60  57 S13       30.03F
$$

  *****  WEATHER ACROSS SOUTH DAKOTA  *****

CITY           SKY/WX    TMP DP  RH WIND       PRES   REMARKS
SIOUX FALLS    TSTM      75  68  78 E9        29.97F
BROOKINGS      FAIR      75  68  78 SE9       29.99F
WATERTOWN      LGT RAIN  72  67  84 CALM      29.98S
HURON          FAIR      79  70  74 E8        29.92F
SISSETON         N/A     76  68  76 S8        29.94R
ABERDEEN       FAIR      75  66  73 S7        29.95S
MITCHELL       FAIR      80  69  69 E13       29.91F
PIERRE         CLOUDY    73  68  84 N9        29.95R
MOBRIDGE       FAIR      77  68  73 S6        29.94F
RAPID CITY     FAIR      79  59  50 NE8       30.01F
$$

  *****  SOME WEATHER IN NEARBY STATES *****

CITY           SKY/WX    TMP DP  RH WIND       PRES   REMARKS
GLASGOW MT     FAIR      89  53  29 VRB7      29.89F
GREAT FALLS MT CLOUDY    87  38  17 SW18      29.99F HAZE
CHEYENNE WY    CLOUDY    74  48  39 N15G21    30.19S
SCOTTSBLUFF NE FAIR      83  55  38 N13       30.04S
OMAHA NE       CLOUDY    83  66  56 S20       29.93S
DES MOINES IA  CLOUDY    75  60  59 SE12      30.03S
DAVENPORT IA   FAIR      73  58  59 SE9       30.08F
CHICAGO IL     FAIR      73  54  51 E14       30.13S
EAU CLAIRE WI  CLOUDY    74  55  51 S9        30.06R
LA CROSSE WI   FAIR      76  57  51 S13       30.07R
$$

  *****  SOME NATIONAL WEATHER *****

CITY           SKY/WX    TMP DP  RH WIND       PRES   REMARKS
LA GUARDIA NY  PTSUNNY   78  53  41 NW14      30.04R
RALEIGH NC     PTSUNNY   82  61  48 E9        30.06R
ATLANTA GA     FAIR      81  63  54 E12       30.02R
NEW ORLEANS LA FAIR      86  56  35 VRB6      29.95F
OKLAHOMA CITY  PTSUNNY   91  69  48 SE13      29.99F HX  96
ALBUQUERQUE NM PTSUNNY   84  50  30 NW12      30.20F
SALT LAKE CITY FAIR      87  51  28 NW10G18   30.17F
LOS ANGELES CA FAIR      82  65  56 W13       29.93F
BOISE ID       FAIR      92  38  15 N8        30.08F
SEATTLE WA     FAIR      81  48  31 W5        30.04F
$$

*** WEATHER ACROSS MANITOBA...SASKATCHEWAN AND ONTARIO ***
                ***ONTARIO***

CITY           SKY/WX    TMP DP  RH WIND       PRES   REMARKS
GERALDTON      MOSUNNY   70  52  52 S15       29.98S
THUNDER BAY    PTSUNNY   70  48  46 S9G18     30.01S
SIOUX LOOKOUT  CLOUDY    72  55  56 SW5       29.94F
TORONTO        CLOUDY    66  52  59 NW6       30.14R
BIG TROUT LK   PTSUNNY   59  55  88 N3        29.87F
PICKLE LAKE    CLOUDY    73  50  43 W8        29.91R
DRYDEN         MOSUNNY   73  52  46 S8        29.95F
KENORA         CLOUDY    72  55  56 SW9       29.95F
$$
                *** MANITOBA***

CITY           SKY/WX    TMP DP  RH WIND       PRES   REMARKS
BRANDON        MOSUNNY   82  55  39 S7        29.88F
DAUPHIN        SUNNY     81  61  50 CALM      29.84F
ISLAND LAKE    MOSUNNY   66  55  68 VRB3      29.88F
PILOT MOUND      N/A     82  61  47 SW12G17     N/A
THE PAS        MOSUNNY   75  55  50 VRB2      29.82F
THOMPSON       MOSUNNY   66  48  52 W5        29.83F
WINNIPEG       MOSUNNY   81  63  54 S9        29.89F
LYNN LAKE      SUNNY     64  46  52 MISG      29.81F
CHURCHILL      PTSUNNY   61  45  55 VRB5      29.76F
GILLAM         PTSUNNY   61  48  63 NW5       29.85F
$$
                ***SASKATCHEWAN***

CITY           SKY/WX    TMP DP  RH WIND       PRES   REMARKS
ESTEVAN        MOSUNNY   88  57  35 S7        29.88F
KINDERSLEY     CLOUDY    75  55  50 SW3       29.86F
LLOYDMINSTER   PTSUNNY   75  54  46 S3        29.85F
PRINCE ALBERT  MOSUNNY   75  57  53 VRB3      29.83F
REGINA         PTSUNNY   82  64  54 SW8       29.84F
YORKTON        SUNNY     79  57  47 S6        29.85F
N. BATTLEFORD  SUNNY     77  52  41 VRB2      29.86F
LA RONGE       PTSUNNY   72  55  56 NE6       29.80F
SASKATOON      MOSUNNY   77  57  50 S5        29.85F
SWIFT CURRENT  SUNNY     84  50  30 W8        29.86F
$$
NOTE: THESE ARE AUTOMATED STATIONS WITH LIMITED QUALITY CONTROL
      "FAIR" INDICATES FEW OR NO CLOUDS BELOW 12,000 FEET WITH NO
      SIGNIFICANT WEATHER AND/OR OBSTRUCTIONS TO VISIBILITY.
      SKY/WX - SKY CONDITION AND SIGNIFICANT WEATHER.
      TMP - AIR TEMPERATURE.    DP   - DEWPOINT TEMPERATURE.
      RH  - RELATIVE HUMIDITY.  PRES - PRESSURE.
      HX  - HEAT INDEX.         WCI  - WIND CHILL INDEX.
$



USA.gov is the U.S. government's official web portal to all federal, state and local government web resources and services.